Location: Peterborough
(44.3091°N, 78.3197°W)
Time: 15:38:28
(UTC-04:00)

Transit 2A - Pass Details

Date: 26 March 2023
Orbit: 591 x 964 km, 66.7° (Epoch: 04 June)

Event Time Altitude Azimuth Distance (km) Brightness Sun altitude
Rises 08:38:23 0° 280° (W) 3,372 8.7 15.7°
Reaches altitude 10° 08:42:16 10° 307° (NW) 2,525 8.2 16.3°
Maximum altitude 08:45:01 13° 335° (NNW) 2,344 8.2 16.8°
Drops below altitude 10° 08:47:51 10° 3° (N) 2,625 8.7 17.3°
Sets 08:52:05 0° 29° (NNE) 3,623 9.7 18.0°
